| time (UTC) | temp C | wind direction | speed KPH | gust KPH | rain 1hr cm | rain 24hr cm | rain mn cm | humidity % | barometer mb |
| 20260503213515 | 16 | 221 | 3.2 | 6.4 | 0.00 | 0.00 | 0.00 | 37 | |
| 20260503212536 | 16 | 212 | 1.6 | 3.2 | 0.00 | 0.00 | 0.00 | 37 | |
| 20260503211517 | 16 | 230 | 0.0 | 1.6 | 0.00 | 0.00 | 0.00 | 38 | |
| 20260503210536 | 16 | 226 | 1.6 | 4.8 | 0.00 | 0.00 | 0.00 | 37 | |
| 20260503205537 | 16 | 220 | 1.6 | 3.2 | 0.00 | 0.00 | 0.00 | 37 | |
| 20260503204517 | 16 | 219 | 1.6 | 8.0 | 0.00 | 0.00 | 0.00 | 38 | |
| 20260503203515 | 16 | 224 | 3.2 | 11.3 | 0.00 | 0.00 | 0.00 | 36 | |
| 20260503202535 | 16 | 220 | 1.6 | 8.0 | 0.00 | 0.00 | 0.00 | 36 | |
| 20260503201516 | 16 | 204 | 1.6 | 6.4 | 0.00 | 0.00 | 0.00 | 36 | |
| 20260503200517 | 16 | 206 | 1.6 | 14.5 | 0.00 | 0.00 | 0.00 | 38 | |
| 20260503195537 | 16 | 215 | 3.2 | 9.7 | 0.00 | 0.00 | 0.00 | 36 | |
| 20260503194518 | 16 | 213 | 3.2 | 16.1 | 0.00 | 0.00 | 0.00 | 36 | |
| 20260503193535 | 16 | 207 | 3.2 | 9.7 | 0.00 | 0.00 | 0.00 | 37 | |
| 20260503192535 | 16 | 222 | 1.6 | 6.4 | 0.00 | 0.00 | 0.00 | 37 | |
| 20260503191515 | 16 | 219 | 3.2 | 8.0 | 0.00 | 0.00 | 0.00 | 37 | |
| 20260503190518 | 16 | 217 | 3.2 | 11.3 | 0.00 | 0.00 | 0.00 | 37 | |
| 20260503185516 | 16 | 220 | 4.8 | 12.9 | 0.00 | 0.00 | 0.00 | 36 | |
| 20260503184516 | 16 | 208 | 1.6 | 6.4 | 0.00 | 0.00 | 0.00 | 38 | |
| 20260503183517 | 16 | 203 | 3.2 | 14.5 | 0.00 | 0.00 | 0.00 | 36 | |
| 20260503182514 | 16 | 223 | 1.6 | 4.8 | 0.00 | 0.00 | 0.00 | 36 | |
| 20260503181516 | 16 | 206 | 1.6 | 6.4 | 0.00 | 0.00 | 0.00 | 36 | |
| 20260503180515 | 16 | 227 | 1.6 | 3.2 | 0.00 | 0.00 | 0.00 | 37 | |
| 20260503175516 | 16 | 186 | 4.8 | 12.9 | 0.00 | 0.00 | 0.00 | 36 | |
| 20260503174517 | 16 | 213 | 1.6 | 6.4 | 0.00 | 0.00 | 0.00 | 37 | |
| 20260503173537 | 16 | 221 | 3.2 | 8.0 | 0.00 | 0.00 | 0.00 | 36 | |
| 20260503172517 | 16 | 210 | 3.2 | 8.0 | 0.00 | 0.00 | 0.00 | 35 | |
| 20260503171515 | 16 | 193 | 1.6 | 8.0 | 0.00 | 0.00 | 0.00 | 36 | |
| 20260503170515 | 15 | 224 | 0.0 | 3.2 | 0.00 | 0.00 | 0.00 | 36 | |
| 20260503150519 | 13 | 231 | 1.6 | 6.4 | 0.00 | 0.00 | 0.00 | 46 | |
| 20260503130516 | 8 | 231 | 1.6 | 4.8 | 0.00 | 0.00 | 0.00 | 60 | |
| 20260503110516 | 3 | 225 | 0.0 | 1.6 | 0.00 | 0.00 | 0.00 | 73 | |
| 20260503081517 | 3 | 196 | 0.0 | 1.6 | 0.00 | 0.00 | 0.00 | 76 | |
| 20260503080538 | 3 | 194 | 0.0 | 1.6 | 0.00 | 0.00 | 0.00 | 76 | |
| 20260503072516 | 3 | 0.0 | 0.0 | 0.00 | 0.00 | 0.00 | 75 | ||
| 20260503071516 | 3 | 0.0 | 0.0 | 0.00 | 0.00 | 0.00 | 75 | ||
| 20260503070517 | 3 | 0.0 | 0.0 | 0.00 | 0.00 | 0.00 | 74 | ||
| 20260503054520 | 4 | 22 | 0.0 | 1.6 | 0.00 | 0.00 | 0.00 | 70 | |
| 20260503053555 | 3 | 0.0 | 0.0 | 0.00 | 0.00 | 0.00 | 71 | ||
| 20260503052515 | 3 | 0.0 | 0.0 | 0.00 | 0.00 | 0.00 | 72 | ||
| 20260503051517 | 3 | 0.0 | 0.0 | 0.00 | 0.00 | 0.00 | 73 | ||
| 20260503050516 | 3 | 0.0 | 0.0 | 0.00 | 0.00 | 0.00 | 73 | ||
| 20260503045536 | 3 | 0.0 | 0.0 | 0.00 | 0.00 | 0.00 | 72 | ||
| 20260503044518 | 3 | 0.0 | 0.0 | 0.00 | 0.00 | 0.00 | 72 | ||
| 20260503043517 | 3 | 0.0 | 0.0 | 0.00 | 0.00 | 0.00 | 74 | ||
| 20260503042516 | 4 | 0.0 | 0.0 | 0.00 | 0.00 | 0.00 | 73 | ||
| 20260503041515 | 4 | 0.0 | 0.0 | 0.00 | 0.00 | 0.00 | 74 | ||
| 20260503040516 | 4 | 0.0 | 0.0 | 0.00 | 0.00 | 0.00 | 73 | ||
| 20260503035516 | 4 | 0.0 | 0.0 | 0.00 | 0.00 | 0.00 | 73 | ||
| 20260503034519 | 4 | 0.0 | 0.0 | 0.00 | 0.00 | 0.00 | 73 | ||
| 20260503033538 | 3 | 0.0 | 0.0 | 0.00 | 0.00 | 0.00 | 73 | ||
| 20260503032518 | 3 | 0.0 | 0.0 | 0.00 | 0.00 | 0.00 | 72 | ||
| 20260503031515 | 3 | 0.0 | 0.0 | 0.00 | 0.00 | 0.00 | 69 | ||
| 20260503030515 | 3 | 0.0 | 0.0 | 0.00 | 0.00 | 0.00 | 68 | ||
| 20260503025517 | 4 | 0.0 | 0.0 | 0.00 | 0.00 | 0.00 | 68 | ||
| 20260503024517 | 4 | 0.0 | 0.0 | 0.00 | 0.00 | 0.00 | 65 | ||
| 20260503023536 | 4 | 0.0 | 0.0 | 0.00 | 0.00 | 0.00 | 64 | ||
| 20260503022516 | 5 | 0.0 | 0.0 | 0.00 | 0.00 | 0.00 | 63 | ||
| 20260503021519 | 5 | 0.0 | 0.0 | 0.00 | 0.00 | 0.00 | 62 | ||
| 20260503020515 | 6 | 0.0 | 0.0 | 0.00 | 0.00 | 0.00 | 61 | ||
| 20260503015600 | 6 | 0.0 | 0.0 | 0.00 | 0.00 | 0.00 | 60 | ||
| 20260503014517 | 6 | 0.0 | 0.0 | 0.00 | 0.00 | 0.00 | 59 | ||
| 20260503013639 | 6 | 18 | 0.0 | 1.6 | 0.00 | 0.00 | 0.00 | 58 | |
| 20260503012519 | 6 | 18 | 0.0 | 1.6 | 0.00 | 0.00 | 0.00 | 57 | |
| 20260503011518 | 7 | 0.0 | 0.0 | 0.00 | 0.00 | 0.00 | 55 | ||
| 20260503010517 | 7 | 0.0 | 0.0 | 0.00 | 0.00 | 0.00 | 53 | ||
| 20260503005535 | 8 | 323 | 0.0 | 1.6 | 0.00 | 0.00 | 0.00 | 52 | |
| 20260503004537 | 8 | 304 | 0.0 | 6.4 | 0.00 | 0.00 | 0.00 | 51 | |
| 20260503003517 | 8 | 314 | 0.0 | 3.2 | 0.00 | 0.00 | 0.00 | 49 | |
| 20260503002517 | 9 | 310 | 1.6 | 8.0 | 0.00 | 0.00 | 0.00 | 48 | |
| 20260503001516 | 9 | 298 | 0.0 | 4.8 | 0.00 | 0.00 | 0.00 | 47 | |
| 20260503000558 | 10 | 306 | 1.6 | 6.4 | 0.00 | 0.00 | 0.00 | 46 | |
| 20260502235517 | 10 | 311 | 1.6 | 8.0 | 0.00 | 0.00 | 0.00 | 44 | |
| 20260502234515 | 10 | 303 | 1.6 | 14.5 | 0.00 | 0.00 | 0.00 | 44 | |
| 20260502233515 | 10 | 290 | 0.0 | 4.8 | 0.00 | 0.00 | 0.00 | 45 | |
| 20260502232515 | 10 | 314 | 1.6 | 8.0 | 0.00 | 0.00 | 0.00 | 45 | |
| 20260502231516 | 10 | 305 | 0.0 | 3.2 | 0.00 | 0.00 | 0.00 | 44 | |
| 20260502230517 | 10 | 302 | 1.6 | 4.8 | 0.00 | 0.00 | 0.00 | 44 | |
| 20260502225518 | 11 | 292 | 1.6 | 3.2 | 0.00 | 0.00 | 0.00 | 42 | |
| 20260502224539 | 11 | 299 | 1.6 | 9.7 | 0.00 | 0.00 | 0.00 | 41 | |
| 20260502223515 | 11 | 320 | 1.6 | 4.8 | 0.00 | 0.00 | 0.00 | 42 | |
| 20260502222515 | 11 | 271 | 1.6 | 6.4 | 0.00 | 0.00 | 0.00 | 42 | |
| 20260502221558 | 11 | 285 | 0.0 | 1.6 | 0.00 | 0.00 | 0.00 | 42 | |
| 20260502220516 | 11 | 305 | 1.6 | 6.4 | 0.00 | 0.00 | 0.00 | 41 | |
| 20260502215516 | 11 | 269 | 0.0 | 4.8 | 0.00 | 0.00 | 0.00 | 41 | |
| 20260502214517 | 11 | 276 | 1.6 | 4.8 | 0.00 | 0.00 | 0.00 | 40 |